Wind_Speed
27 26 21 19 17 16 16 15 13 11 11 11 10 8 6 5 3 2 2 2 5 7 9 12 15 17 19 20 19 20 21 21 16 30 26 27 28 28 30 30 29 30 31
28 25 21 19 19 18 16 15 13 13 12 10 9 7 6 4 3 2 2 3 6 9 12 14 17 19 22 22 22 23 22 19 18 19 27 26 29 28 28 29 29 28 29
26 23 22 21 20 18 17 15 14 13 12 10 8 7 5 3 1 2 3 5 7 10 14 18 19 21 23 20 17 18 19 19 18 21 27 28 28 26 27 28 28 29 30
26 24 22 20 20 18 17 16 14 12 11 9 8 6 3 1 2 3 5 8 12 15 17 18 19 19 18 21 22 17 16 21 21 21 22 24 24 28 23 24 25 23 26
22 21 20 20 19 18 17 15 13 12 10 8 6 5 4 3 3 4 8 13 15 17 18 17 17 17 19 17 17 20 20 20 21 21 18 19 20 21 20 23 23 25 28
22 22 22 21 19 18 16 15 13 11 9 8 7 4 3 4 6 9 11 13 16 16 17 17 18 18 17 18 18 19 19 19 21 20 19 18 21 21 23 23 21 18 9
24 23 21 20 19 17 15 14 13 11 9 7 5 2 5 6 6 8 9 13 16 15 16 17 17 19 21 22 20 22 16 20 20 23 23 23 23 26 27 25 22 21 21
22 21 20 20 19 17 15 14 12 9 6 4 4 6 7 7 8 8 10 16 16 16 15 17 19 21 23 21 24 23 24 25 26 19 22 25 25 27 21 21 22 23 25
22 21 20 19 19 17 15 12 9 6 4 4 6 7 8 10 10 8 10 15 15 16 15 15 18 22 22 23 25 24 23 22 23 19 18 20 20 19 18 17 14 15 13
21 21 19 18 17 15 12 8 6 5 5 6 6 8 10 11 9 8 9 12 14 17 15 17 20 20 21 24 23 24 23 24 21 19 20 16 18 18 16 14 15 11 11
22 22 19 16 14 11 9 7 6 5 5 7 9 10 9 9 5 7 11 13 15 16 17 21 22 20 23 24 22 19 21 23 21 22 22 19 17 16 16 15 15 17 14
22 20 17 14 11 9 8 7 6 5 7 8 8 8 7 7 11 12 10 13 15 19 19 23 22 22 22 20 19 20 19 19 21 22 21 19 21 20 19 20 18 17 17
20 17 15 12 10 8 7 6 6 6 6 6 7 8 11 11 10 11 13 14 16 19 21 19 20 18 18 19 16 18 18 20 21 15 16 17 20 21 20 19 18 17 17
18 15 12 10 8 7 6 6 5 4 4 6 8 9 11 13 13 15 16 18 20 20 18 15 16 16 16 16 19 20 19 19 17 20 19 22 22 21 22 21 22 21 22
15 13 11 9 7 6 4 3 3 5 5 7 9 10 12 14 13 15 16 19 19 17 13 21 19 20 20 18 19 20 22 20 20 21 21 21 19 18 18 21 21 22 13
15 12 10 8 5 4 2 2 3 3 4 5 6 10 10 10 11 14 16 18 15 17 17 18 16 17 16 17 18 19 19 19 20 21 21 22 20 20 22 22 21 19 17
13 11 9 7 5 3 1 2 4 5 6 5 9 9 10 11 12 14 16 15 15 14 17 15 15 16 17 18 18 19 19 22 23 22 22 22 21 21 18 22 21 19 17
11 9 8 6 4 2 1 2 4 6 9 11 10 10 9 11 12 14 16 14 16 16 16 15 17 17 18 19 20 21 21 23 22 22 22 21 21 20 20 19 20 18 19
10 9 7 5 3 2 1 2 3 6 7 10 11 10 12 13 12 13 12 12 13 15 17 17 18 18 19 19 20 20 20 20 20 22 23 23 22 20 20 19 19 17 16
9 7 6 5 3 2 2 3 6 6 8 9 10 10 14 14 12 16 14 13 15 16 18 18 18 18 19 19 19 19 19 21 21 23 23 22 22 20 18 18 18 17 15
9 8 5 4 3 2 3 5 5 6 9 8 10 11 12 12 15 14 13 15 15 17 18 18 18 18 18 18 18 18 19 19 20 21 21 21 19 18 16 14 13 11 12
9 8 7 5 5 5 5 6 5 8 9 9 11 12 11 14 14 14 13 14 15 16 16 17 17 17 16 17 18 17 17 19 18 21 21 19 17 15 15 13 12 12 12
9 8 7 7 7 6 6 5 7 9 10 11 12 12 13 15 15 14 15 16 16 15 16 17 16 16 15 16 17 14 16 19 15 19 19 18 16 15 15 13 13 13 15
9 9 9 9 8 6 6 7 7 9 10 11 12 12 14 15 15 15 15 15 15 15 17 16 14 14 14 15 15 14 15 17 13 17 18 14 14 13 12 11 11 10 11
11 11 10 8 9 10 9 7 9 10 12 13 14 14 15 15 15 14 14 14 14 15 17 15 14 15 14 15 15 14 15 17 17 14 16 13 11 11 11 11 11 8 10
11 10 9 9 10 10 11 11 11 13 15 15 15 15 15 16 14 13 14 14 15 17 17 15 15 13 14 14 14 12 14 14 14 14 14 12 10 11 9 10 8 8 8
Wind_Direction
176 169 171 162 155 164 163 157 154 153 161 157 147 149 155 161 171 196 221 264 289 309 315 315 308 309 307 310 309 307 303 297 279 294 298 306 308 309 307 304 301 297 298
166 162 158 156 157 156 151 145 144 149 148 136 144 146 155 168 190 231 288 303 313 315 315 315 314 317 314 315 312 307 303 301 295 294 308 312 309 313 312 309 305 302 298
150 152 158 155 151 146 141 142 145 142 133 135 141 146 153 164 200 300 305 310 311 315 318 318 319 321 321 324 326 323 317 312 309 305 302 309 307 312 314 312 310 306 301
154 152 150 150 144 139 140 138 142 137 132 139 142 139 132 91 347 314 307 313 316 320 323 324 325 326 326 327 325 323 325 319 316 311 298 297 302 308 305 306 310 311 309
137 149 142 140 140 139 136 139 136 132 131 133 120 98 75 30 359 325 322 325 328 330 332 336 335 329 323 322 318 319 315 312 311 309 298 298 299 304 303 303 295 302 305
149 138 139 139 137 138 139 136 130 125 120 109 95 87 73 38 348 334 332 334 339 344 341 341 339 334 334 325 316 311 306 309 310 304 300 299 299 301 300 295 291 293 299
138 139 138 139 136 136 132 126 121 117 111 99 88 35 1 356 347 345 345 348 350 350 345 342 342 337 328 321 320 317 304 305 300 303 302 297 297 300 298 297 290 278 275
140 135 138 139 134 130 127 122 117 110 101 81 30 1 357 360 355 1 347 348 355 354 345 337 337 336 333 326 320 320 315 314 305 303 298 303 311 309 307 314 303 291 288
134 138 140 138 132 132 126 119 112 108 79 41 21 15 7 6 358 352 347 346 344 344 344 340 333 328 329 324 322 325 326 321 319 302 306 312 320 322 323 330 330 317 310
139 136 137 137 134 130 123 116 104 88 63 38 35 24 10 358 358 350 341 339 342 341 338 329 331 328 325 327 332 330 325 320 331 349 337 332 332 330 332 327 318 305 311
136 134 134 134 128 124 119 110 93 79 61 40 24 10 5 354 356 354 342 339 336 335 332 332 329 326 329 329 331 333 326 330 337 339 336 337 339 334 335 334 326 319 320
138 135 131 128 124 125 119 104 94 67 43 27 8 360 358 345 338 346 350 338 335 334 328 326 327 330 333 335 334 331 335 335 337 336 339 337 334 337 333 327 321 313 305
138 133 131 127 119 111 111 96 70 43 31 16 358 353 354 351 355 350 342 340 338 331 326 326 330 334 337 337 342 340 341 345 341 337 334 329 329 330 330 335 334 328 322
139 136 133 128 123 106 91 67 44 29 11 4 0 353 345 350 352 351 344 342 336 333 335 348 341 339 343 345 347 347 346 342 337 335 329 332 335 335 333 337 332 335 328
141 139 138 136 128 108 81 60 24 10 358 346 345 347 342 339 342 340 339 334 331 337 346 346 352 352 348 344 340 341 343 345 335 336 331 328 325 326 323 329 332 330 310
148 149 147 138 128 131 115 65 50 40 11 8 5 348 338 332 335 335 335 335 343 341 344 351 341 338 332 332 332 332 333 333 333 331 330 331 323 324 326 329 332 330 311
157 153 149 152 151 137 74 8 355 8 9 0 353 347 342 339 336 336 341 345 347 347 350 342 334 331 328 330 329 328 325 331 339 337 335 334 334 333 326 333 331 323 312
158 159 161 157 152 153 111 358 353 357 350 348 352 349 344 342 337 340 342 341 353 350 344 335 331 329 328 328 330 330 332 339 341 340 342 343 341 335 331 325 326 317 317
164 162 162 163 170 163 347 325 328 330 331 334 340 345 343 338 336 343 348 349 341 333 336 332 334 334 336 339 339 339 342 341 338 345 345 345 343 337 333 333 332 325 331
169 170 176 178 172 199 269 289 319 323 325 327 334 337 338 340 348 352 345 338 334 332 335 334 337 339 341 340 339 342 344 347 348 349 346 346 346 342 336 338 340 335 340
180 181 186 187 197 232 278 301 307 324 323 323 325 327 329 339 340 334 329 331 329 329 332 334 335 337 340 340 340 341 343 345 350 349 346 346 350 354 359 358 1 11 360
192 193 200 216 229 251 284 302 290 324 327 314 324 321 326 330 327 325 323 325 325 325 326 330 330 332 336 337 339 337 338 343 353 350 347 348 353 357 357 3 7 11 6
204 208 216 226 240 253 281 302 317 326 325 320 319 321 326 326 322 320 319 322 325 326 328 332 330 330 334 335 338 335 332 334 334 347 340 342 347 348 352 356 358 358 5
218 221 227 237 248 265 285 309 318 322 315 315 314 316 317 320 317 315 316 320 322 323 329 334 333 333 334 336 339 342 334 334 331 345 336 340 344 346 349 350 351 355 357
226 228 230 248 267 271 291 306 318 310 311 310 308 307 311 314 311 310 312 315 317 320 329 333 334 331 331 333 332 330 336 332 325 330 332 331 337 337 342 343 343 351 349
229 230 235 266 268 276 286 292 297 303 310 308 305 302 305 308 302 302 307 312 313 321 328 330 331 331 332 333 334 335 334 342 340 336 342 338 331 339 347 354 1 359 359
Height
784 789 794 794 794 803 807 807 810 812 817 819 818 821 824 826 828 829 829 829 829 829 829 828 828 827 825 823 821 820 818 817 812 801 803 801 798 796 794 792 789 786 783
784 787 792 796 800 804 807 807 811 815 817 816 820 821 824 826 827 828 828 828 828 827 827 826 825 823 821 819 816 815 813 812 810 803 798 796 794 792 790 786 782 779 776
780 788 797 800 802 804 807 809 813 815 815 818 821 822 824 826 826 826 827 826 827 827 825 824 821 818 816 814 812 810 809 807 806 802 795 794 790 787 783 780 776 772 771
788 793 797 800 801 804 808 810 814 814 815 820 822 823 824 825 825 826 826 826 825 824 822 820 817 816 814 811 809 807 805 803 801 798 795 790 787 782 779 776 770 768 765
784 795 797 799 802 806 808 813 814 815 818 821 821 822 823 824 825 825 825 824 822 820 818 816 814 812 810 809 807 804 802 799 797 793 790 786 782 778 775 772 768 764 760
793 794 797 800 803 807 811 814 814 816 819 820 820 822 824 824 824 824 823 822 819 817 815 813 811 810 807 805 803 802 800 796 793 789 785 781 777 774 770 767 764 761 755
791 795 798 802 805 810 812 814 815 818 819 820 821 823 823 823 823 822 821 818 816 815 813 811 810 807 804 802 799 797 795 793 790 786 780 777 772 769 765 761 758 755 752
794 796 800 804 807 810 812 815 816 818 820 821 822 822 822 822 821 819 817 816 815 814 813 810 807 805 802 799 795 792 789 786 783 780 777 772 769 765 759 757 753 749 745
795 799 803 806 808 811 813 815 817 819 819 820 821 820 820 819 818 817 816 815 814 812 810 808 806 802 799 796 791 786 783 780 778 774 771 768 765 761 758 753 750 747 743
799 801 804 807 810 812 814 816 818 819 819 820 820 819 817 817 816 816 816 814 811 809 808 806 803 800 796 792 788 784 779 776 772 768 767 763 761 758 755 752 749 746 743
800 803 806 809 811 813 815 817 818 818 819 819 817 817 817 816 816 815 813 811 809 807 805 802 800 796 792 788 785 781 778 774 770 767 763 760 757 754 752 749 747 745 742
802 805 808 810 812 814 815 817 817 818 817 817 817 817 817 816 814 812 811 810 808 805 802 799 795 792 789 785 782 779 775 772 768 764 760 757 754 751 749 746 743 741 739
803 806 809 811 813 814 815 816 816 816 817 818 818 817 816 814 813 811 810 808 805 803 799 795 792 789 786 783 780 777 773 769 766 762 759 756 752 749 745 742 739 736 733
804 807 810 811 813 814 815 815 816 817 818 817 816 815 814 813 811 809 807 804 802 798 795 792 791 787 784 781 777 774 771 768 765 761 757 753 749 746 742 739 735 732 728
804 807 809 812 813 814 815 816 816 816 816 815 815 814 812 810 809 808 805 803 800 796 792 789 787 784 780 778 775 772 768 765 762 758 755 751 747 744 740 736 733 729 727
804 807 810 811 812 813 814 815 816 816 816 815 813 812 810 809 807 806 803 800 798 795 791 788 786 783 780 777 774 770 766 763 760 756 753 749 745 741 737 734 731 727 724
803 806 808 810 811 812 813 814 814 814 813 812 811 810 809 807 805 804 801 797 795 793 790 787 785 782 779 776 773 769 765 761 758 754 750 747 743 739 736 731 728 725 721
803 805 806 808 809 811 812 812 811 811 810 810 809 808 807 805 803 801 799 795 792 791 789 787 784 781 778 774 771 767 763 759 755 752 748 744 740 737 733 730 726 723 719
801 803 805 807 808 809 809 810 810 809 809 808 807 806 805 803 801 799 797 795 792 790 788 785 782 779 776 772 769 765 762 758 754 750 746 742 738 735 731 728 725 721 718
800 802 803 805 806 806 807 808 808 808 807 806 805 804 802 800 798 796 795 793 791 789 786 783 780 777 774 770 767 763 760 756 752 749 745 741 737 733 730 726 723 720 717
798 800 801 802 803 804 805 805 805 805 804 803 802 802 801 798 796 795 793 791 789 787 784 781 777 775 771 768 765 761 758 755 751 747 744 740 736 732 729 726 723 720 717
796 797 799 799 801 802 803 803 802 802 801 800 799 799 797 796 794 793 791 788 787 784 781 778 775 772 769 766 763 759 756 753 749 746 743 739 736 733 730 726 723 720 717
793 794 796 797 798 800 800 800 800 799 798 797 796 795 794 793 792 790 788 786 783 781 778 775 772 769 767 764 761 758 755 751 748 745 741 738 735 732 729 727 724 721 718
791 792 794 795 796 797 797 797 796 796 796 795 794 792 791 790 788 787 785 783 780 778 775 772 770 767 764 762 759 756 753 749 746 743 740 737 734 731 729 726 724 722 719
788 790 791 793 793 794 793 793 793 793 792 791 790 789 788 787 785 784 782 780 777 775 772 770 767 765 762 759 756 753 750 747 744 741 738 735 733 730 728 726 723 721 719
786 788 789 790 790 790 790 790 790 789 789 788 787 786 785 783 782 780 779 777 774 772 769 767 764 762 759 756 753 750 748 745 742 739 736 733 731 729 727 725 723 721 719